When you browse on this site, cookies collect data to enhance your experience and personalize the content and advertising you see.
Visit our Privacy Policy to learn more. By continuing to use the site, you agree to this use of cookies and data.
  • In Schweiz
  • Länderverzeichnis
  • Für 7 Tage
  • Wassertemperatur
  • Wetterkarte
  • Widgets
  • user-avatar
    Anmelden

    Stündliche Wetter Pleskachivka

    Heute, 6 Juni, Samstag

    Zeit Temperatur Niederschläge Wind Luftdruck Luftfeuchtigkeit
    00:00 +15°C° 0.7 mm 5 m/S 746 mmHg 89%
    01:00 +14°C° 0 mm 4 m/S 746 mmHg 90%
    02:00 +13°C° 0 mm 4 m/S 746 mmHg 91%
    03:00 +13°C° 0 mm 4 m/S 746 mmHg 92%
    04:00 +13°C° 0 mm 4 m/S 746 mmHg 92%
    05:00 +13°C° 0 mm 4 m/S 746 mmHg 91%
    06:00 +13°C° 0 mm 4 m/S 746 mmHg 91%
    07:00 +15°C° 0 mm 5 m/S 746 mmHg 86%
    08:00 +17°C° 0 mm 5 m/S 747 mmHg 80%
    09:00 +20°C° 0 mm 5 m/S 747 mmHg 75%
    10:00 +21°C° 0 mm 6 m/S 747 mmHg 70%
    11:00 +22°C° 0 mm 6 m/S 747 mmHg 66%
    12:00 +24°C° 0 mm 6 m/S 747 mmHg 61%
    13:00 +24°C° 0 mm 6 m/S 747 mmHg 60%
    14:00 +26°C° 0 mm 6 m/S 747 mmHg 60%
    15:00 +26°C° 0 mm 5 m/S 747 mmHg 59%
    16:00 +26°C° 0 mm 5 m/S 747 mmHg 63%
    17:00 +26°C° 0 mm 4 m/S 747 mmHg 67%
    18:00 +26°C° 0 mm 3 m/S 747 mmHg 71%
    19:00 +24°C° 0 mm 3 m/S 747 mmHg 73%
    20:00 +21°C° 0 mm 2 m/S 747 mmHg 76%
    21:00 +20°C° 0 mm 2 m/S 747 mmHg 79%
    22:00 +19°C° 0 mm 2 m/S 748 mmHg 82%
    23:00 +18°C° 0 mm 3 m/S 748 mmHg 85%

    Morgen, 7 Juni, Sonntag

    Zeit Temperatur Niederschläge Wind Luftdruck Luftfeuchtigkeit
    00:00 +17°C° 0 mm 3 m/S 748 mmHg 88%
    01:00 +17°C° 0 mm 3 m/S 748 mmHg 87%
    02:00 +16°C° 0 mm 2 m/S 748 mmHg 86%
    03:00 +16°C° 0 mm 2 m/S 748 mmHg 85%
    04:00 +16°C° 0 mm 2 m/S 748 mmHg 84%
    05:00 +18°C° 0 mm 1 m/S 748 mmHg 83%
    06:00 +18°C° 0 mm 1 m/S 748 mmHg 81%
    07:00 +20°C° 0 mm 1 m/S 749 mmHg 75%
    08:00 +20°C° 0 mm 2 m/S 749 mmHg 69%
    09:00 +23°C° 0 mm 2 m/S 749 mmHg 62%
    10:00 +24°C° 0 mm 2 m/S 749 mmHg 58%
    11:00 +25°C° 0 mm 2 m/S 749 mmHg 54%
    12:00 +26°C° 0 mm 2 m/S 749 mmHg 50%
    13:00 +27°C° 0 mm 2 m/S 749 mmHg 49%
    14:00 +27°C° 0 mm 2 m/S 749 mmHg 48%
    15:00 +28°C° 0 mm 2 m/S 748 mmHg 46%
    16:00 +28°C° 0 mm 1 m/S 748 mmHg 51%
    17:00 +27°C° 0 mm 1 m/S 748 mmHg 55%
    18:00 +27°C° 0 mm 1 m/S 748 mmHg 59%
    19:00 +25°C° 0 mm 2 m/S 748 mmHg 63%
    20:00 +23°C° 0 mm 2 m/S 748 mmHg 67%
    21:00 +20°C° 0 mm 2 m/S 748 mmHg 70%
    22:00 +20°C° 0 mm 2 m/S 748 mmHg 73%
    23:00 +19°C° 0 mm 2 m/S 748 mmHg 75%

    übermorgen, 8 Juni, Montag

    Zeit Temperatur Niederschläge Wind Luftdruck Luftfeuchtigkeit
    00:00 +18°C° 0 mm 2 m/S 748 mmHg 77%
    01:00 +18°C° 0 mm 2 m/S 748 mmHg 79%
    02:00 +18°C° 0 mm 2 m/S 748 mmHg 80%
    03:00 +17°C° 0 mm 2 m/S 748 mmHg 81%
    04:00 +17°C° 0 mm 2 m/S 748 mmHg 81%
    05:00 +18°C° 0 mm 2 m/S 748 mmHg 81%
    06:00 +18°C° 0 mm 2 m/S 748 mmHg 82%
    07:00 +20°C° 0 mm 3 m/S 748 mmHg 78%
    08:00 +22°C° 0 mm 3 m/S 748 mmHg 74%
    09:00 +24°C° 0 mm 3 m/S 748 mmHg 70%
    10:00 +26°C° 0 mm 3 m/S 748 mmHg 65%
    11:00 +27°C° 0 mm 3 m/S 748 mmHg 61%
    12:00 +28°C° 0 mm 3 m/S 748 mmHg 56%
    13:00 +28°C° 0 mm 3 m/S 747 mmHg 55%
    14:00 +28°C° 0 mm 3 m/S 747 mmHg 54%
    15:00 +29°C° 0 mm 3 m/S 746 mmHg 53%
    16:00 +28°C° 0 mm 3 m/S 746 mmHg 57%
    17:00 +28°C° 0 mm 2 m/S 746 mmHg 61%
    18:00 +28°C° 0 mm 2 m/S 746 mmHg 65%
    19:00 +26°C° 0 mm 2 m/S 746 mmHg 69%
    20:00 +24°C° 0 mm 2 m/S 746 mmHg 73%
    21:00 +21°C° 0 mm 2 m/S 746 mmHg 76%
    22:00 +21°C° 0 mm 2 m/S 746 mmHg 78%
    23:00 +20°C° 0 mm 2 m/S 746 mmHg 80%

    9 Juni, Dienstag

    Zeit Temperatur Niederschläge Wind Luftdruck Luftfeuchtigkeit
    00:00 +20°C° 0 mm 2 m/S 746 mmHg 82%
    01:00 +19°C° 0 mm 2 m/S 746 mmHg 83%
    02:00 +19°C° 0 mm 2 m/S 746 mmHg 85%
    03:00 +18°C° 0 mm 2 m/S 745 mmHg 87%
    04:00 +19°C° 0 mm 2 m/S 746 mmHg 87%
    05:00 +19°C° 0 mm 2 m/S 746 mmHg 87%
    06:00 +20°C° 0 mm 2 m/S 746 mmHg 87%
    07:00 +23°C° 0 mm 2 m/S 746 mmHg 82%
    08:00 +24°C° 0 mm 3 m/S 746 mmHg 77%
    09:00 +26°C° 0 mm 3 m/S 746 mmHg 72%
    10:00 +27°C° 0.1 mm 3 m/S 746 mmHg 67%
    11:00 +28°C° 0.1 mm 2 m/S 746 mmHg 62%
    12:00 +29°C° 0.1 mm 2 m/S 746 mmHg 57%
    13:00 +29°C° 0.2 mm 2 m/S 745 mmHg 55%
    14:00 +30°C° 0.2 mm 2 m/S 745 mmHg 54%
    15:00 +30°C° 0.2 mm 2 m/S 745 mmHg 52%
    16:00 +29°C° 0.2 mm 2 m/S 745 mmHg 57%
    17:00 +29°C° 0.2 mm 3 m/S 745 mmHg 63%
    18:00 +28°C° 0.2 mm 3 m/S 745 mmHg 68%
    19:00 +26°C° 0 mm 3 m/S 745 mmHg 73%
    20:00 +24°C° 0 mm 3 m/S 745 mmHg 78%
    21:00 +21°C° 0 mm 3 m/S 745 mmHg 83%
    22:00 +21°C° 0 mm 3 m/S 745 mmHg 84%
    23:00 +20°C° 0 mm 3 m/S 745 mmHg 85%

    10 Juni, Mittwoch

    Zeit Temperatur Niederschläge Wind Luftdruck Luftfeuchtigkeit
    00:00 +20°C° 0 mm 3 m/S 745 mmHg 86%
    01:00 +20°C° 0 mm 3 m/S 745 mmHg 86%
    02:00 +19°C° 0 mm 2 m/S 745 mmHg 87%
    03:00 +19°C° 0 mm 2 m/S 745 mmHg 87%
    04:00 +19°C° 0 mm 2 m/S 745 mmHg 87%
    05:00 +20°C° 0 mm 2 m/S 745 mmHg 87%
    06:00 +20°C° 0 mm 3 m/S 745 mmHg 88%
    07:00 +22°C° 0 mm 3 m/S 745 mmHg 83%
    08:00 +24°C° 0 mm 3 m/S 745 mmHg 78%
    09:00 +26°C° 0 mm 4 m/S 745 mmHg 73%
    10:00 +27°C° 0.1 mm 4 m/S 745 mmHg 69%
    11:00 +29°C° 0.1 mm 4 m/S 745 mmHg 64%
    12:00 +30°C° 0.1 mm 5 m/S 745 mmHg 60%
    13:00 +30°C° 0 mm 4 m/S 745 mmHg 58%
    14:00 +32°C° 0 mm 4 m/S 745 mmHg 55%
    15:00 +32°C° 0 mm 4 m/S 745 mmHg 53%
    16:00 +31°C° 0 mm 3 m/S 745 mmHg 58%
    17:00 +30°C° 0 mm 3 m/S 745 mmHg 62%
    18:00 +30°C° 0 mm 3 m/S 744 mmHg 66%
    19:00 +28°C° 0 mm 3 m/S 744 mmHg 69%
    20:00 +26°C° 0 mm 3 m/S 744 mmHg 72%
    21:00 +24°C° 0 mm 3 m/S 744 mmHg 75%
    22:00 +23°C° 0 mm 2 m/S 744 mmHg 76%
    23:00 +21°C° 0 mm 2 m/S 744 mmHg 77%

    11 Juni, Donnerstag

    Zeit Temperatur Niederschläge Wind Luftdruck Luftfeuchtigkeit
    00:00 +21°C° 0 mm 2 m/S 744 mmHg 78%
    01:00 +21°C° 0 mm 1 m/S 744 mmHg 79%
    02:00 +21°C° 0 mm 1 m/S 744 mmHg 80%
    03:00 +20°C° 0 mm 1 m/S 744 mmHg 81%
    04:00 +21°C° 0 mm 1 m/S 744 mmHg 82%
    05:00 +21°C° 0 mm 1 m/S 744 mmHg 83%
    06:00 +21°C° 0 mm 2 m/S 744 mmHg 84%
    07:00 +23°C° 0 mm 2 m/S 744 mmHg 79%
    08:00 +25°C° 0 mm 2 m/S 744 mmHg 75%
    09:00 +27°C° 0 mm 2 m/S 744 mmHg 70%
    10:00 +28°C° 0 mm 3 m/S 744 mmHg 66%
    11:00 +29°C° 0 mm 3 m/S 744 mmHg 61%
    12:00 +31°C° 0 mm 3 m/S 744 mmHg 56%
    13:00 +31°C° 0 mm 3 m/S 744 mmHg 56%
    14:00 +32°C° 0 mm 4 m/S 744 mmHg 56%
    15:00 +32°C° 0 mm 4 m/S 744 mmHg 56%
    16:00 +30°C° 0 mm 4 m/S 743 mmHg 59%
    17:00 +30°C° 0 mm 3 m/S 743 mmHg 62%
    18:00 +29°C° 0 mm 3 m/S 743 mmHg 65%
    19:00 +27°C° 0 mm 3 m/S 743 mmHg 67%
    20:00 +26°C° 0 mm 3 m/S 743 mmHg 70%
    21:00 +24°C° 0 mm 2 m/S 743 mmHg 73%
    22:00 +22°C° 0 mm 3 m/S 743 mmHg 73%
    23:00 +22°C° 0 mm 3 m/S 743 mmHg 73%
    Mehr zeigen